Погода в Севрюкаеве

Россия / Самарская область     53°10′34″N   49°29′57″E
темп.,
°C
ветер,
м/с
пор.,
м/с
влажн.,
%
обл.,
%
осадки,
мм/ч
давл.,
гПа
погр.,
м
20 апреля, вт
вт2001:00+4вюв6135241 0.0 1026889
04:00+4в7135361 0.0 1027746
07:00+3в814509 0.0 1028680
10:00+5вюв9113910 0.0 1028907
13:00+9вюв911355 0.0 10271217
16:00+10юв810355 0.0 10261398
19:00+9вюв81239100 0.0 10251113
22:00+6вюв81540100 0.0 1025834
21 апреля, ср
ср2101:00+5юв91745100 0.0 1025736
04:00+4юв91746100 0.0 1024719
07:00+4юв91649100 0.0 1024812
10:00+3юв101862100 0.9 1024799
13:00+1юв91792100 3.2 1024735
16:00+2юв91791100 5.4 1023828
19:00+2ююв71698100 3.3 1024718
22:00+2ююв61397100 5.6 1024661
22 апреля, чт
чт2201:00+3ююв61198100 0.1 1024512
04:00+3ююв51097100 0.1 1024418
07:00+4ююв51098100 0.2 1024409
10:00+5ююв5991100 0.2 1025453
13:00+10ю677496 0.0 1025823
16:00+10ююв6979100 0.0 1025685
19:00+8ююв6983100 0.0 1026510
22:00+4юв59894 0.0 1026319
23 апреля, пт
пт2301:00+3юв489867 0.0 1026263
04:00+4ююв359490 0.0 1026305
07:00+5юв359189 0.0 1026295
10:00+8юв337971 0.0 1026515
13:00+12вюв336587 0.0 1025824
16:00+13вюв3360100 0.0 10241205
19:00+11в4672100 0.0 1023355
22:00+8всв3582100 0.0 1022116
24 апреля, сб
сб2401:00+8св3684100 0.0 1020141
04:00+7ссв3685100 0.0 1018122
07:00+7св2686100 0.0 1017217
10:00+9всв3478100 0.0 1016710
13:00+9св3377100 0.1 1016716
16:00+11св2267100 0.3 1015823
19:00+10вюв227779 0.1 1015333
22:00+7вюв24865 0.1 101492